Time,TemperatureF,DewpointF,PressureIn,WindDirection,WindDirectionDegrees,WindSpeedMPH,WindSpeedGustMPH,Humidity,HourlyPrecipIn,Conditions,Clouds,dailyrainin,SoftwareType,DateUTC
2013-04-10 00:00:00,58.0,0.0,30.08,NE,35,12.0,16.0,19,-99.99,,,-99.99,,2013-04-10 07:00:00,
2013-04-10 00:08:00,59.0,0.0,30.07,North,361,9.0,23.0,18,-99.99,,,-99.99,,2013-04-10 07:08:00,
2013-04-10 00:16:00,58.0,0.0,30.07,North,7,9.0,22.0,18,-99.99,,,-99.99,,2013-04-10 07:16:00,
2013-04-10 00:24:00,57.0,0.0,30.08,North,361,9.0,18.0,21,-99.99,,,-99.99,,2013-04-10 07:24:00,
2013-04-10 00:32:00,57.0,0.0,30.09,North,361,7.0,16.0,20,-99.99,,,-99.99,,2013-04-10 07:32:00,
2013-04-10 00:40:00,57.0,0.0,30.09,North,361,13.0,15.0,19,-99.99,,,-99.99,,2013-04-10 07:40:00,
2013-04-10 00:48:00,58.0,0.0,30.10,North,361,10.0,16.0,18,-99.99,,,-99.99,,2013-04-10 07:48:00,
2013-04-10 00:56:00,57.0,0.0,30.10,NW,311,7.0,14.0,19,-99.99,,,-99.99,,2013-04-10 07:56:00,
2013-04-10 01:04:00,57.0,0.0,30.10,West,280,5.0,9.0,19,-99.99,,,-99.99,,2013-04-10 08:04:00,
2013-04-10 01:12:00,57.0,0.0,30.11,WNW,291,5.0,7.0,20,-99.99,,,-99.99,,2013-04-10 08:12:00,
2013-04-10 01:20:00,57.0,0.0,30.11,WNW,299,7.0,8.0,19,-99.99,,,-99.99,,2013-04-10 08:20:00,
2013-04-10 01:28:00,57.0,0.0,30.11,NW,319,7.0,9.0,19,-99.99,,,-99.99,,2013-04-10 08:28:00,
2013-04-10 01:36:00,57.0,0.0,30.11,NW,323,6.0,8.0,19,-99.99,,,-99.99,,2013-04-10 08:36:00,
2013-04-10 01:44:00,58.0,0.0,30.11,NW,308,8.0,10.0,19,-99.99,,,-99.99,,2013-04-10 08:44:00,
2013-04-10 01:52:00,58.0,0.0,30.11,NW,321,6.0,10.0,21,-99.99,,,-99.99,,2013-04-10 08:52:00,
2013-04-10 02:00:00,58.0,0.0,30.11,NNW,332,8.0,12.0,18,-99.99,,,-99.99,,2013-04-10 09:00:00,
2013-04-10 02:08:00,58.0,0.0,30.10,North,361,13.0,17.0,19,-99.99,,,-99.99,,2013-04-10 09:08:00,
2013-04-10 02:16:00,59.0,0.0,30.09,North,361,10.0,21.0,17,-99.99,,,-99.99,,2013-04-10 09:16:00,
2013-04-10 02:24:00,59.0,0.0,30.08,North,361,12.0,18.0,18,-99.99,,,-99.99,,2013-04-10 09:24:00,
2013-04-10 02:32:00,58.0,0.0,30.07,North,361,7.0,18.0,18,-99.99,,,-99.99,,2013-04-10 09:32:00,
2013-04-10 02:37:00,57.0,0.0,30.07,North,361,12.0,18.0,20,-99.99,,,-99.99,,2013-04-10 09:37:00,
2013-04-10 02:44:00,57.0,0.0,30.07,North,361,20.0,23.0,19,-99.99,,,-99.99,,2013-04-10 09:44:00,
2013-04-10 02:52:00,56.0,0.0,30.07,North,361,13.0,24.0,22,-99.99,,,-99.99,,2013-04-10 09:52:00,
2013-04-10 03:00:00,56.0,0.0,30.08,North,361,8.0,20.0,19,-99.99,,,-99.99,,2013-04-10 10:00:00,
2013-04-10 03:08:00,56.0,0.0,30.09,North,361,8.0,16.0,23,-99.99,,,-99.99,,2013-04-10 10:08:00,
2013-04-10 03:16:00,55.0,0.0,30.09,NNE,22,2.0,15.0,21,-99.99,,,-99.99,,2013-04-10 10:16:00,
2013-04-10 03:24:00,54.0,0.0,30.09,SSE,165,7.0,9.0,20,-99.99,,,-99.99,,2013-04-10 10:24:00,
2013-04-10 03:32:00,54.0,0.0,30.09,SSE,158,3.0,8.0,22,-99.99,,,-99.99,,2013-04-10 10:32:00,
2013-04-10 03:40:00,54.0,0.0,30.09,SSW,200,2.0,8.0,21,-99.99,,,-99.99,,2013-04-10 10:40:00,
2013-04-10 03:48:00,55.0,0.0,30.09,North,356,2.0,7.0,20,-99.99,,,-99.99,,2013-04-10 10:48:00,
2013-04-10 03:56:00,55.0,0.0,30.10,North,361,1.0,6.0,23,-99.99,,,-99.99,,2013-04-10 10:56:00,
2013-04-10 04:04:00,55.0,0.0,30.09,North,361,6.0,10.0,21,-99.99,,,-99.99,,2013-04-10 11:04:00,
2013-04-10 04:12:00,54.0,0.0,30.09,North,361,3.0,8.0,20,-99.99,,,-99.99,,2013-04-10 11:12:00,
2013-04-10 04:20:00,54.0,0.0,30.10,West,267,0.0,6.0,22,-99.99,,,-99.99,,2013-04-10 11:20:00,
2013-04-10 04:28:00,52.0,0.0,30.10,SSW,192,5.0,7.0,21,-99.99,,,-99.99,,2013-04-10 11:28:00,
2013-04-10 04:36:00,53.0,0.0,30.10,WSW,241,3.0,7.0,23,-99.99,,,-99.99,,2013-04-10 11:36:00,
2013-04-10 04:44:00,54.0,0.0,30.10,WNW,283,6.0,7.0,22,-99.99,,,-99.99,,2013-04-10 11:44:00,
2013-04-10 04:52:00,55.0,0.0,30.10,NW,312,1.0,6.0,21,-99.99,,,-99.99,,2013-04-10 11:52:00,
2013-04-10 05:00:00,55.0,0.0,30.10,NNW,330,1.0,5.0,22,-99.99,,,-99.99,,2013-04-10 12:00:00,
2013-04-10 05:08:00,56.0,0.0,30.10,North,361,3.0,7.0,20,-99.99,,,-99.99,,2013-04-10 12:08:00,
2013-04-10 05:16:00,55.0,0.0,30.10,NE,35,3.0,9.0,21,-99.99,,,-99.99,,2013-04-10 12:16:00,
2013-04-10 05:24:00,54.0,0.0,30.10,ENE,57,5.0,9.0,21,-99.99,,,-99.99,,2013-04-10 12:24:00,
2013-04-10 05:32:00,54.0,0.0,30.11,NE,48,7.0,9.0,21,-99.99,,,-99.99,,2013-04-10 12:32:00,
2013-04-10 05:40:00,54.0,0.0,30.11,NE,51,7.0,12.0,21,-99.99,,,-99.99,,2013-04-10 12:40:00,
2013-04-10 05:48:00,54.0,0.0,30.12,North,358,5.0,13.0,22,-99.99,,,-99.99,,2013-04-10 12:48:00,
2013-04-10 05:56:00,53.0,0.0,30.12,NNE,28,6.0,9.0,23,-99.99,,,-99.99,,2013-04-10 12:56:00,
2013-04-10 06:04:00,53.0,0.0,30.12,North,0,10.0,10.0,22,-99.99,,,-99.99,,2013-04-10 13:04:00,
2013-04-10 06:12:00,54.0,0.0,30.12,North,0,7.0,12.0,25,-99.99,,,-99.99,,2013-04-10 13:12:00,
2013-04-10 06:20:00,54.0,0.0,30.12,NNE,33,7.0,15.0,22,-99.99,,,-99.99,,2013-04-10 13:20:00,
2013-04-10 06:28:00,53.0,0.0,30.13,North,361,7.0,10.0,22,-99.99,,,-99.99,,2013-04-10 13:28:00,
2013-04-10 06:36:00,53.0,0.0,30.13,North,361,7.0,9.0,22,-99.99,,,-99.99,,2013-04-10 13:36:00,
2013-04-10 06:44:00,55.0,0.0,30.13,North,361,7.0,15.0,21,-99.99,,,-99.99,,2013-04-10 13:44:00,
2013-04-10 06:52:00,55.0,0.0,30.13,North,361,9.0,10.0,20,-99.99,,,-99.99,,2013-04-10 13:52:00,
2013-04-10 07:00:00,55.0,0.0,30.14,North,5,8.0,12.0,20,-99.99,,,-99.99,,2013-04-10 14:00:00,
2013-04-10 07:08:00,55.0,0.0,30.14,North,361,3.0,12.0,20,-99.99,,,-99.99,,2013-04-10 14:08:00,
2013-04-10 07:16:00,55.0,0.0,30.15,North,355,6.0,8.0,20,-99.99,,,-99.99,,2013-04-10 14:16:00,
2013-04-10 07:24:00,56.0,0.0,30.15,North,361,3.0,8.0,20,-99.99,,,-99.99,,2013-04-10 14:24:00,
2013-04-10 07:32:00,57.0,0.0,30.15,North,361,7.0,14.0,20,-99.99,,,-99.99,,2013-04-10 14:32:00,
2013-04-10 07:40:00,58.0,0.0,30.15,North,361,7.0,14.0,19,-99.99,,,-99.99,,2013-04-10 14:40:00,
2013-04-10 07:48:00,58.0,0.0,30.16,North,0,3.0,13.0,18,-99.99,,,-99.99,,2013-04-10 14:48:00,
2013-04-10 07:56:00,58.0,0.0,30.16,ENE,57,6.0,9.0,18,-99.99,,,-99.99,,2013-04-10 14:56:00,
2013-04-10 08:04:00,58.0,0.0,30.16,ENE,78,5.0,9.0,19,-99.99,,,-99.99,,2013-04-10 15:04:00,
2013-04-10 08:12:00,58.0,0.0,30.16,SSE,160,0.0,6.0,18,-99.99,,,-99.99,,2013-04-10 15:12:00,
2013-04-10 08:20:00,59.0,0.0,30.16,North,0,0.0,2.0,18,-99.99,,,-99.99,,2013-04-10 15:20:00,
2013-04-10 08:28:00,59.0,0.0,30.16,SSW,212,0.0,3.0,18,-99.99,,,-99.99,,2013-04-10 15:28:00,
2013-04-10 08:36:00,60.0,0.0,30.16,SE,143,2.0,3.0,19,-99.99,,,-99.99,,2013-04-10 15:36:00,
2013-04-10 08:44:00,61.0,0.0,30.16,NE,34,0.0,3.0,17,-99.99,,,-99.99,,2013-04-10 15:44:00,
2013-04-10 08:52:00,61.0,0.0,30.16,North,361,0.0,2.0,17,-99.99,,,-99.99,,2013-04-10 15:52:00,
2013-04-10 09:00:00,61.0,0.0,30.16,West,259,2.0,2.0,19,-99.99,,,-99.99,,2013-04-10 16:00:00,
2013-04-10 09:08:00,61.0,0.0,30.16,WSW,245,2.0,7.0,19,-99.99,,,-99.99,,2013-04-10 16:08:00,
2013-04-10 09:16:00,62.0,0.0,30.16,SSE,152,2.0,5.0,17,-99.99,,,-99.99,,2013-04-10 16:16:00,
2013-04-10 09:24:00,64.0,0.0,30.16,North,361,2.0,5.0,15,-99.99,,,-99.99,,2013-04-10 16:24:00,
2013-04-10 09:32:00,64.0,0.0,30.16,WNW,302,3.0,7.0,15,-99.99,,,-99.99,,2013-04-10 16:32:00,
2013-04-10 09:40:00,64.0,0.0,30.16,WNW,295,5.0,9.0,16,-99.99,,,-99.99,,2013-04-10 16:40:00,
2013-04-10 09:48:00,64.0,0.0,30.16,South,175,3.0,9.0,16,-99.99,,,-99.99,,2013-04-10 16:48:00,
2013-04-10 09:56:00,65.0,0.0,30.16,ENE,76,2.0,6.0,15,-99.99,,,-99.99,,2013-04-10 16:56:00,
2013-04-10 10:04:00,68.0,0.0,30.16,NE,34,1.0,7.0,14,-99.99,,,-99.99,,2013-04-10 17:04:00,
2013-04-10 10:12:00,66.0,0.0,30.16,NNW,337,5.0,7.0,16,-99.99,,,-99.99,,2013-04-10 17:12:00,
2013-04-10 10:20:00,66.0,0.0,30.16,ESE,115,3.0,6.0,15,-99.99,,,-99.99,,2013-04-10 17:20:00,
2013-04-10 10:28:00,68.0,0.0,30.16,South,171,7.0,12.0,14,-99.99,,,-99.99,,2013-04-10 17:28:00,
2013-04-10 10:36:00,70.0,0.0,30.16,ESE,117,0.0,10.0,15,-99.99,,,-99.99,,2013-04-10 17:36:00,
2013-04-10 10:44:00,70.0,0.0,30.16,East,86,0.0,8.0,14,-99.99,,,-99.99,,2013-04-10 17:44:00,
2013-04-10 10:52:00,71.0,0.0,30.15,North,11,5.0,9.0,13,-99.99,,,-99.99,,2013-04-10 17:52:00,
2013-04-10 11:00:00,72.0,0.0,30.15,ENE,66,5.0,9.0,14,-99.99,,,-99.99,,2013-04-10 18:00:00,
2013-04-10 11:12:00,72.0,0.0,30.14,ESE,118,6.0,14.0,13,-99.99,,,-99.99,,2013-04-10 18:12:00,
2013-04-10 11:20:00,73.0,0.0,30.14,SE,132,7.0,12.0,13,-99.99,,,-99.99,,2013-04-10 18:20:00,
2013-04-10 11:28:00,74.0,0.0,30.14,SSW,197,8.0,10.0,14,-99.99,,,-99.99,,2013-04-10 18:28:00,
2013-04-10 11:36:00,71.0,0.0,30.13,SSW,209,9.0,17.0,16,-99.99,,,-99.99,,2013-04-10 18:36:00,
2013-04-10 11:44:00,71.0,0.0,30.13,South,186,13.0,17.0,13,-99.99,,,-99.99,,2013-04-10 18:44:00,
2013-04-10 11:52:00,72.0,0.0,30.12,South,186,9.0,18.0,13,-99.99,,,-99.99,,2013-04-10 18:52:00,
2013-04-10 12:00:00,73.0,0.0,30.12,SE,141,9.0,18.0,14,-99.99,,,-99.99,,2013-04-10 19:00:00,
2013-04-10 12:08:00,74.0,0.0,30.12,SSE,158,9.0,16.0,16,-99.99,,,-99.99,,2013-04-10 19:08:00,
2013-04-10 12:16:00,71.0,0.0,30.11,South,184,6.0,15.0,13,-99.99,,,-99.99,,2013-04-10 19:16:00,
2013-04-10 12:28:00,75.0,0.0,30.10,South,177,7.0,14.0,12,-99.99,,,-99.99,,2013-04-10 19:28:00,
2013-04-10 12:36:00,75.0,0.0,30.10,South,175,8.0,14.0,15,-99.99,,,-99.99,,2013-04-10 19:36:00,
2013-04-10 12:44:00,74.0,0.0,30.10,SSE,153,9.0,16.0,14,-99.99,,,-99.99,,2013-04-10 19:44:00,
2013-04-10 12:52:00,75.0,0.0,30.10,SSE,157,7.0,16.0,13,-99.99,,,-99.99,,2013-04-10 19:52:00,
2013-04-10 13:00:00,75.0,0.0,30.10,South,185,12.0,16.0,15,-99.99,,,-99.99,,2013-04-10 20:00:00,
2013-04-10 13:08:00,76.0,0.0,30.09,SSE,152,12.0,16.0,13,-99.99,,,-99.99,,2013-04-10 20:08:00,
2013-04-10 13:24:00,74.0,0.0,30.08,South,169,8.0,18.0,13,-99.99,,,-99.99,,2013-04-10 20:24:00,
2013-04-10 13:40:00,78.0,0.0,30.07,East,98,5.0,14.0,13,-99.99,,,-99.99,,2013-04-10 20:40:00,
2013-04-10 13:48:00,79.0,0.0,30.07,SE,145,6.0,13.0,12,-99.99,,,-99.99,,2013-04-10 20:48:00,
2013-04-10 13:56:00,77.0,0.0,30.07,SSE,157,6.0,15.0,13,-99.99,,,-99.99,,2013-04-10 20:56:00,
2013-04-10 14:04:00,76.0,0.0,30.06,South,188,10.0,15.0,14,-99.99,,,-99.99,,2013-04-10 21:04:00,
2013-04-10 14:16:00,79.0,0.0,30.06,SE,142,0.0,14.0,12,-99.99,,,-99.99,,2013-04-10 21:16:00,
2013-04-10 14:24:00,77.0,0.0,30.06,WSW,249,8.0,15.0,14,-99.99,,,-99.99,,2013-04-10 21:24:00,
2013-04-10 14:32:00,76.0,0.0,30.05,WSW,249,8.0,14.0,15,-99.99,,,-99.99,,2013-04-10 21:32:00,
2013-04-10 14:40:00,77.0,0.0,30.05,WSW,249,9.0,15.0,13,-99.99,,,-99.99,,2013-04-10 21:40:00,
2013-04-10 14:48:00,77.0,0.0,30.04,South,188,15.0,17.0,14,-99.99,,,-99.99,,2013-04-10 21:48:00,
2013-04-10 14:56:00,78.0,0.0,30.03,SSW,210,12.0,16.0,14,-99.99,,,-99.99,,2013-04-10 21:56:00,
2013-04-10 15:04:00,78.0,0.0,30.03,SSW,203,9.0,16.0,13,-99.99,,,-99.99,,2013-04-10 22:04:00,
2013-04-10 15:12:00,79.0,0.0,30.03,SSE,167,5.0,17.0,13,-99.99,,,-99.99,,2013-04-10 22:12:00,
2013-04-10 15:28:00,78.0,0.0,30.02,SSW,199,6.0,15.0,13,-99.99,,,-99.99,,2013-04-10 22:28:00,
2013-04-10 15:36:00,80.0,0.0,30.01,South,187,8.0,15.0,16,-99.99,,,-99.99,,2013-04-10 22:36:00,
2013-04-10 15:44:00,83.0,0.0,30.01,SSE,166,10.0,14.0,13,-99.99,,,-99.99,,2013-04-10 22:44:00,
2013-04-10 15:52:00,83.0,0.0,30.00,South,187,14.0,14.0,12,-99.99,,,-99.99,,2013-04-10 22:52:00,
2013-04-10 16:00:00,80.0,0.0,30.00,SSE,160,8.0,17.0,13,-99.99,,,-99.99,,2013-04-10 23:00:00,
2013-04-10 16:08:00,84.0,0.0,29.99,SSE,166,12.0,12.0,14,-99.99,,,-99.99,,2013-04-10 23:08:00,
2013-04-10 16:16:00,81.0,0.0,29.99,South,169,12.0,17.0,12,-99.99,,,-99.99,,2013-04-10 23:16:00,
2013-04-10 16:24:00,81.0,0.0,29.98,SSE,165,5.0,20.0,13,-99.99,,,-99.99,,2013-04-10 23:24:00,
2013-04-10 16:32:00,84.0,0.0,29.98,South,179,14.0,15.0,12,-99.99,,,-99.99,,2013-04-10 23:32:00,
2013-04-10 16:40:00,82.0,0.0,29.98,SSE,152,10.0,18.0,12,-99.99,,,-99.99,,2013-04-10 23:40:00,
2013-04-10 16:48:00,83.0,0.0,29.98,South,182,8.0,18.0,12,-99.99,,,-99.99,,2013-04-10 23:48:00,
2013-04-10 16:56:00,83.0,0.0,29.98,SSE,162,15.0,22.0,11,-99.99,,,-99.99,,2013-04-10 23:56:00,
2013-04-10 17:04:00,81.0,0.0,29.98,South,179,17.0,23.0,12,-99.99,,,-99.99,,2013-04-11 00:04:00,
2013-04-10 17:12:00,81.0,0.0,29.98,South,179,17.0,20.0,12,-99.99,,,-99.99,,2013-04-11 00:12:00,
2013-04-10 17:20:00,82.0,0.0,29.98,SSE,154,9.0,20.0,12,-99.99,,,-99.99,,2013-04-11 00:20:00,
2013-04-10 17:28:00,82.0,0.0,29.98,South,170,7.0,18.0,13,-99.99,,,-99.99,,2013-04-11 00:28:00,
2013-04-10 17:36:00,81.0,0.0,29.97,South,189,14.0,18.0,12,-99.99,,,-99.99,,2013-04-11 00:36:00,
2013-04-10 17:44:00,82.0,0.0,29.97,SSE,164,9.0,18.0,14,-99.99,,,-99.99,,2013-04-11 00:44:00,
2013-04-10 17:52:00,82.0,0.0,29.97,SSE,168,10.0,16.0,12,-99.99,,,-99.99,,2013-04-11 00:52:00,
2013-04-10 18:00:00,82.0,0.0,29.97,South,181,14.0,16.0,14,-99.99,,,-99.99,,2013-04-11 01:00:00,
2013-04-10 18:08:00,80.0,0.0,29.97,South,173,13.0,16.0,12,-99.99,,,-99.99,,2013-04-11 01:08:00,
2013-04-10 18:16:00,80.0,0.0,29.97,South,176,9.0,15.0,15,-99.99,,,-99.99,,2013-04-11 01:16:00,
2013-04-10 18:24:00,81.0,0.0,29.97,South,172,9.0,16.0,13,-99.99,,,-99.99,,2013-04-11 01:24:00,
2013-04-10 18:32:00,80.0,0.0,29.97,South,181,12.0,16.0,13,-99.99,,,-99.99,,2013-04-11 01:32:00,
2013-04-10 18:40:00,80.0,0.0,29.97,South,176,14.0,15.0,15,-99.99,,,-99.99,,2013-04-11 01:40:00,
2013-04-10 18:48:00,79.0,0.0,29.97,SSE,161,9.0,14.0,13,-99.99,,,-99.99,,2013-04-11 01:48:00,
2013-04-10 18:56:00,78.0,0.0,29.97,SSE,163,10.0,14.0,14,-99.99,,,-99.99,,2013-04-11 01:56:00,
2013-04-10 19:04:00,77.0,0.0,29.97,South,191,20.0,20.0,13,-99.99,,,-99.99,,2013-04-11 02:04:00,
2013-04-10 19:12:00,75.0,0.0,29.97,South,187,16.0,21.0,15,-99.99,,,-99.99,,2013-04-11 02:12:00,
2013-04-10 19:20:00,74.0,0.0,29.97,SSW,194,13.0,20.0,17,-99.99,,,-99.99,,2013-04-11 02:20:00,
2013-04-10 19:28:00,74.0,0.0,29.97,South,185,13.0,18.0,17,-99.99,,,-99.99,,2013-04-11 02:28:00,
2013-04-10 19:36:00,73.0,0.0,29.97,South,188,10.0,17.0,18,-99.99,,,-99.99,,2013-04-11 02:36:00,
2013-04-10 19:44:00,72.0,0.0,29.98,South,182,9.0,14.0,19,-99.99,,,-99.99,,2013-04-11 02:44:00,
2013-04-10 19:52:00,71.0,0.0,29.98,South,173,9.0,12.0,19,-99.99,,,-99.99,,2013-04-11 02:52:00,
2013-04-10 20:00:00,71.0,0.0,29.98,South,175,9.0,12.0,19,-99.99,,,-99.99,,2013-04-11 03:00:00,
2013-04-10 20:08:00,71.0,0.0,29.98,South,173,6.0,10.0,19,-99.99,,,-99.99,,2013-04-11 03:08:00,
2013-04-10 20:16:00,71.0,0.0,29.98,South,177,5.0,6.0,21,-99.99,,,-99.99,,2013-04-11 03:16:00,
2013-04-10 20:24:00,71.0,0.0,29.98,South,172,5.0,5.0,21,-99.99,,,-99.99,,2013-04-11 03:24:00,
2013-04-10 20:32:00,71.0,0.0,29.98,SW,233,3.0,5.0,19,-99.99,,,-99.99,,2013-04-11 03:32:00,
2013-04-10 20:40:00,72.0,0.0,29.99,West,269,3.0,5.0,19,-99.99,,,-99.99,,2013-04-11 03:40:00,
2013-04-10 20:48:00,71.0,0.0,29.99,West,274,1.0,5.0,20,-99.99,,,-99.99,,2013-04-11 03:48:00,
2013-04-10 20:56:00,70.0,0.0,29.99,NW,324,1.0,5.0,21,-99.99,,,-99.99,,2013-04-11 03:56:00,
2013-04-10 21:00:00,69.0,0.0,29.99,NW,326,5.0,6.0,19,-99.99,,,-99.99,,2013-04-11 04:00:00,
2013-04-10 21:08:00,68.0,0.0,29.99,NNW,334,3.0,6.0,20,-99.99,,,-99.99,,2013-04-11 04:08:00,
2013-04-10 21:16:00,67.0,0.0,29.99,NW,315,3.0,5.0,20,-99.99,,,-99.99,,2013-04-11 04:16:00,
2013-04-10 21:24:00,67.0,0.0,30.00,ESE,103,2.0,3.0,19,-99.99,,,-99.99,,2013-04-11 04:24:00,
2013-04-10 21:32:00,67.0,0.0,30.00,SSE,154,0.0,2.0,20,-99.99,,,-99.99,,2013-04-11 04:32:00,
2013-04-10 21:40:00,67.0,0.0,30.00,East,80,3.0,5.0,21,-99.99,,,-99.99,,2013-04-11 04:40:00,
2013-04-10 21:44:00,66.0,0.0,30.00,NE,35,1.0,5.0,20,-99.99,,,-99.99,,2013-04-11 04:44:00,
2013-04-10 21:52:00,66.0,0.0,30.00,East,97,2.0,5.0,22,-99.99,,,-99.99,,2013-04-11 04:52:00,
2013-04-10 22:00:00,65.0,0.0,30.00,SE,139,7.0,9.0,23,-99.99,,,-99.99,,2013-04-11 05:00:00,
2013-04-10 22:08:00,64.0,0.0,29.99,SE,142,7.0,12.0,24,-99.99,,,-99.99,,2013-04-11 05:08:00,
2013-04-10 22:16:00,64.0,0.0,30.00,NE,36,6.0,10.0,24,-99.99,,,-99.99,,2013-04-11 05:16:00,
2013-04-10 22:24:00,65.0,0.0,30.00,North,361,1.0,9.0,24,-99.99,,,-99.99,,2013-04-11 05:24:00,
2013-04-10 22:32:00,65.0,0.0,30.00,NE,54,3.0,9.0,26,-99.99,,,-99.99,,2013-04-11 05:32:00,
2013-04-10 22:40:00,64.0,0.0,30.00,ESE,103,5.0,7.0,25,-99.99,,,-99.99,,2013-04-11 05:40:00,
2013-04-10 22:48:00,64.0,0.0,30.00,East,82,5.0,7.0,24,-99.99,,,-99.99,,2013-04-11 05:48:00,
2013-04-10 22:56:00,64.0,0.0,30.00,ENE,72,5.0,7.0,25,-99.99,,,-99.99,,2013-04-11 05:56:00,
2013-04-10 23:04:00,63.0,0.0,29.99,NE,56,2.0,6.0,24,-99.99,,,-99.99,,2013-04-11 06:04:00,
2013-04-10 23:12:00,63.0,0.0,29.99,SE,126,0.0,5.0,25,-99.99,,,-99.99,,2013-04-11 06:12:00,
2013-04-10 23:20:00,63.0,0.0,29.99,NE,44,0.0,7.0,24,-99.99,,,-99.99,,2013-04-11 06:20:00,
2013-04-10 23:28:00,63.0,0.0,29.99,North,361,1.0,3.0,26,-99.99,,,-99.99,,2013-04-11 06:28:00,
2013-04-10 23:36:00,63.0,0.0,29.99,NNE,32,3.0,5.0,26,-99.99,,,-99.99,,2013-04-11 06:36:00,
2013-04-10 23:44:00,63.0,0.0,29.98,NNE,20,2.0,5.0,25,-99.99,,,-99.99,,2013-04-11 06:44:00,
2013-04-10 23:52:00,63.0,0.0,29.98,NNE,19,1.0,3.0,25,-99.99,,,-99.99,,2013-04-11 06:52:00,